Weather History for KFDK - July, 2013

Change the Weather History Date:

Tuesday, July 30, 2013

  Actual Average (KHGR) Record (KHGR)
Temperature  
Mean Temperature 68 °F -  
Max Temperature 82 °F 82 °F 95 °F (1999)
Min Temperature 53 °F 63 °F 52 °F (2014)
Cooling Degree Days 2    
Growing Degree Days 18 (Base 50)    
Moisture  
Dew Point 59 °F    
Average Humidity 87    
Maximum Humidity 100    
Minimum Humidity 45    
Precipitation  
Precipitation 0.00 in - - ()
Sea Level Pressure  
Sea Level Pressure 30.21 in    
Wind  
Wind Speed 1 mph (NW)    
Max Wind Speed 9 mph    
Max Gust Speed -    
Visibility 9 miles    
Events      
Averages and records for this station are not official NWS values.
T = Trace of Precipitation, MM = Missing Value Source: NWS Daily Summary

Daily Weather History Graph

Daily Weather History Graph

Search for Another Location

Airport or City:

Trip Planner

Search our weather history database for the weather conditions in past years. The results will help you decide how hot, cold, wet, or windy it might be!

Date:

Astronomy

Jul. 30, 2013 Rise Set
Actual Time 6:07 AM EDT 8:23 PM EDT
Civil Twilight 5:37 AM EDT 8:53 PM EDT
Nautical Twilight 5:00 AM EDT 9:30 PM EDT
Astronomical Twilight 4:19 AM EDT 10:11 PM EDT
Moon 12:24 AM EDT (7/30) 2:41 PM EDT (7/30)
Length of Visible Light 15h 16m
Length of Day
14h 15m
Last Quarter, 41% of the Moon is Illuminated
Jul 30
Last Quarter
Aug 6
New
Aug 14
First Quarter
Aug 20
Full
Aug 28
Last Quarter

Hourly Weather History & Observations

Time (EDT) Temp. Heat Index Dew Point Humidity Pressure Visibility Wind Dir Wind Speed Gust Speed Precip Events Conditions
12:05 AM 59.0 °F - 59.0 °F 100% 30.20 in 10.0 mi ESE 3.5 mph - N/A   Clear
12:25 AM 59.0 °F - 59.0 °F 100% 30.20 in 10.0 mi Calm Calm - N/A   Clear
12:45 AM 59.0 °F - 59.0 °F 100% 30.20 in 10.0 mi Calm Calm - N/A   Clear
1:05 AM 59.0 °F - 59.0 °F 100% 30.20 in 10.0 mi Calm Calm - N/A   Clear
1:25 AM 57.2 °F - 57.2 °F 100% 30.20 in 5.0 mi Calm Calm - N/A   Clear
1:45 AM 59.0 °F - 59.0 °F 100% 30.21 in 10.0 mi Calm Calm - N/A   Scattered Clouds
2:05 AM 59.0 °F - 59.0 °F 100% 30.20 in 10.0 mi Calm Calm - N/A   Scattered Clouds
2:25 AM 57.2 °F - 57.2 °F 100% 30.20 in 10.0 mi SE 3.5 mph - N/A   Clear
2:45 AM 57.2 °F - 57.2 °F 100% 30.21 in 10.0 mi Calm Calm - N/A   Clear
3:05 AM 57.2 °F - 57.2 °F 100% 30.21 in 10.0 mi Calm Calm - N/A   Clear
3:25 AM 55.4 °F - 55.4 °F 100% 30.21 in 10.0 mi South 4.6 mph - N/A   Clear
3:45 AM 57.2 °F - 57.2 °F 100% 30.21 in 10.0 mi Calm Calm - N/A   Clear
4:05 AM 55.4 °F - 55.4 °F 100% 30.21 in 7.0 mi Calm Calm - N/A   Clear
4:25 AM 55.4 °F - 55.4 °F 100% 30.21 in 7.0 mi Calm Calm - N/A   Clear
4:45 AM 55.4 °F - 55.4 °F 100% 30.22 in 7.0 mi Calm Calm - N/A   Clear
5:05 AM 55.4 °F - 55.4 °F 100% 30.22 in 7.0 mi Calm Calm - N/A   Clear
5:25 AM 55.4 °F - 55.4 °F 100% 30.22 in 3.0 mi Calm Calm - N/A   Clear
5:45 AM 55.4 °F - 55.4 °F 100% 30.22 in 3.0 mi Calm Calm - N/A   Clear
6:05 AM 53.6 °F - 53.6 °F 100% 30.23 in 5.0 mi Calm Calm - N/A   Clear
6:25 AM 55.4 °F - 55.4 °F 100% 30.24 in 4.0 mi Calm Calm - N/A   Clear
6:45 AM 55.4 °F - 55.4 °F 100% 30.25 in 4.0 mi Calm Calm - N/A   Clear
6:50 AM 57.2 °F - 57.2 °F 100% 30.25 in 10.0 mi Calm Calm - N/A   Clear
7:45 AM 62.6 °F - 60.8 °F 94% 30.26 in 10.0 mi Calm Calm - N/A   Clear
8:50 AM 68.0 °F - 60.8 °F 78% 30.27 in 10.0 mi Calm Calm - N/A   Clear
10:45 AM 75.2 °F - 57.2 °F 53% 30.25 in 10.0 mi Calm Calm - N/A   Clear
11:50 AM 78.8 °F - 57.2 °F 47% 30.24 in 10.0 mi NNW 5.8 mph - N/A   Mostly Cloudy
12:50 PM 78.8 °F - 57.2 °F 47% 30.23 in 10.0 mi NNW 9.2 mph - N/A   Clear
1:52 PM 78.8 °F - 59.0 °F 51% 30.22 in 10.0 mi WNW 5.8 mph - N/A   Mostly Cloudy
2:47 PM 78.8 °F - 57.2 °F 47% 30.21 in 10.0 mi NW 4.6 mph - N/A   Mostly Cloudy
3:50 PM 82.4 °F 82.9 °F 60.8 °F 48% 30.19 in 10.0 mi Variable 3.5 mph - N/A   Scattered Clouds
4:50 PM 80.6 °F 80.8 °F 57.2 °F 45% 30.19 in 10.0 mi North 5.8 mph - N/A   Scattered Clouds
5:50 PM 80.6 °F 80.8 °F 57.2 °F 45% 30.18 in 10.0 mi Variable 3.5 mph - N/A   Clear
6:50 PM 80.6 °F 81.1 °F 59.0 °F 48% 30.18 in 10.0 mi Calm Calm - N/A   Scattered Clouds
7:45 PM 75.2 °F - 62.6 °F 65% 30.18 in 10.0 mi Calm Calm - N/A   Scattered Clouds
9:05 PM 68.0 °F - 64.4 °F 88% 30.19 in 10.0 mi Calm Calm - N/A   Clear
9:25 PM 64.4 °F - 62.6 °F 94% 30.19 in 10.0 mi Calm Calm - N/A   Clear
9:45 PM 64.4 °F - 62.6 °F 94% 30.19 in 10.0 mi Calm Calm - N/A   Clear
10:05 PM 64.4 °F - 64.4 °F 100% 30.19 in 10.0 mi Calm Calm - N/A   Clear
10:25 PM 62.6 °F - 62.6 °F 100% 30.19 in 10.0 mi Calm Calm - N/A   Clear
10:45 PM 62.6 °F - 62.6 °F 100% 30.19 in 10.0 mi SE 3.5 mph - N/A   Clear
11:05 PM 62.6 °F - 62.6 °F 100% 30.18 in 10.0 mi Calm Calm - N/A   Clear
11:25 PM 62.6 °F - 62.6 °F 100% 30.18 in 10.0 mi Calm Calm - N/A   Clear
11:45 PM 62.6 °F - 62.6 °F 100% 30.18 in 7.0 mi Calm Calm - N/A   Clear